DECAYED

FENGYUN 1C DEB, 36685 (Decayed)

Orbit data source: Space-Track

FENGYUN 1C DEB, 36685 was space debris in SSO originally from a launch on Mon, 10 May 1999 UTC launched from the Taiyaun Space Center, China (TSC). Fengyun 1C debris stems from the Chinese weather satellite Fengyun-1C, which was intentionally destroyed by a Chinese anti-satellite missile in 2007. This event dramatically increased the amount of space debris, with thousands of trackable fragments posing hazards to satellites and human spaceflight. The Fengyun 1C debris cloud has become a focal point in discussions about space sustainability and the need for international regulations to prevent the creation of new debris.

Not visible in the next 10 days
Identifier
36685, 1999-025DZF
Orbit
Decayed
Country
Flag of CNCN / PRC
Related business
Manufacturer
Unknown
Mission
Decayed spacecraft
Bus & Motor
Unknown
Mass
Unknown
Launch date (UTC)
1999-05-10 (27 years ago)
Launch vehicle
Unknown
Launch site
Taiyaun Space Center, China (TSC)
Object type
Payload
Rocket body
Debris
Shape & HBR
Unknown shape, 0.1 m
Radar Cross Section
Small (<0.1 m²)

Expand to show TLE details & history
Last TLE update: 11 months ago

TLE from 11 months ago
0 FENGYUN 1C DEB
1 36685U 99025DZF 25274.40230709  .01178262  00000-0  73915-2 0  9992
2 36685  98.8049 147.8900 0018750 145.0915 215.1579 15.73827128657027
Epoch: 2025-10-01T09:39Z
TLE epoch observation values (Epoch: 2025-10-01T09:39:19.332Z)
Latitude
0.00002°
Longitude
-7.31839°
Altitude
361.41 km
Speed
7.687 km/s
True Right ascension
09h 51m 33s
True Declination
0° 00' 00"
Sunlit
Object was in daylight at epoch
Visualization orbit readout
Latitude
Unknown
Longitude
Unknown
Altitude
Unknown
Speed
Unknown
Apparent Right ascension
Unknown
Apparent Declination
Unknown
Sunlit
N/A
Visualization observer readout
Local Sidereal Time
13:52:30
Azimuth
Unknown
Elevation
Unknown
Doppler factor
Unknown
Orbital elements
Apogee altitude
357.538 km
Perigee altitude
332.326 km
Semi-major axis
6,723.069 km
Eccentricity
0.00188
Inclination
98.8049°
RAAN
147.89°
Arg. of periapsis
145.0915°
True anomaly
215.03441°
Mean anomaly
215.1579°
Eccentric anomaly
215.09613°
Mean motion
3.93724 °/min
Orbital period
91.43 mins
BSTAR
0.0073915
Loading maneuver chart data...
Computing Atmospheric mass density...
Loading historical data...
Loading historical data...
Loading historical data...
Loading historical data...
Loading historical data...
Loading historical data...
Loading historical data...

Documentation

Showing up to 5 results
|